CBY29 EGXC-EGXC

Flight info

Callsign CBY29
Flight time 0h 5m
Altitude 26000
Route MAM TR1 LND STAY1/0100 LND TR1 MAM
Aircraft EUFI/M-SG/C

Departure

Time 2026-05-08 17:27
Airport RAF Coningsby (EGXC)

Arrival

Time 2026-05-08 17:32
Airport RAF Coningsby (EGXC)
Time Latitude Longitude Altitude Speed Heading
2026-05-08 16:37 50.21225 -6.49080 26260 ft 582 kts 78°
2026-05-08 16:38 50.22191 -6.43012 26564 ft 574 kts 78°
2026-05-08 16:38 50.23178 -6.36963 26797 ft 572 kts 77°
2026-05-08 16:38 50.24163 -6.30950 27029 ft 571 kts 77°
2026-05-08 16:38 50.25149 -6.24936 27260 ft 570 kts 77°
2026-05-08 16:39 50.26135 -6.18933 27249 ft 573 kts 77°
2026-05-08 16:39 50.27134 -6.12841 26639 ft 582 kts 77°
2026-05-08 16:39 50.27879 -6.06647 26058 ft 581 kts 88°
2026-05-08 16:39 50.27700 -6.00430 25560 ft 577 kts 101°
2026-05-08 16:40 50.26480 -5.94518 25226 ft 570 kts 123°
2026-05-08 16:40 50.24102 -5.89594 24944 ft 567 kts 134°
2026-05-08 16:40 50.21070 -5.85804 24966 ft 558 kts 151°
2026-05-08 16:40 50.17706 -5.82811 24995 ft 556 kts 153°
2026-05-08 16:41 50.14140 -5.80610 25037 ft 539 kts 173°
2026-05-08 16:41 50.10695 -5.80735 25411 ft 486 kts 196°
2026-05-08 16:41 50.07969 -5.83243 25504 ft 448 kts 227°
2026-05-08 16:42 50.05865 -5.92335 25350 ft 434 kts 258°
2026-05-08 16:42 50.05442 -5.96952 25294 ft 420 kts 258°
2026-05-08 16:42 50.04930 -6.01506 25229 ft 435 kts 256°
2026-05-08 16:42 50.04241 -6.06155 25213 ft 449 kts 253°
2026-05-08 16:43 50.03475 -6.10714 25208 ft 426 kts 252°
2026-05-08 16:43 50.02760 -6.14990 25157 ft 391 kts 253°
2026-05-08 16:43 50.02065 -6.19221 25163 ft 411 kts 253°
2026-05-08 16:43 50.01367 -6.23477 25159 ft 398 kts 253°
2026-05-08 16:44 50.00708 -6.27564 25136 ft 391 kts 253°
2026-05-08 16:44 50.00036 -6.31716 25157 ft 401 kts 253°
2026-05-08 16:44 49.99357 -6.35912 25175 ft 388 kts 253°
2026-05-08 16:44 49.98707 -6.39971 25170 ft 396 kts 253°
2026-05-08 16:45 49.98053 -6.44079 25156 ft 389 kts 253°
2026-05-08 16:45 49.97407 -6.48152 25151 ft 384 kts 253°
2026-05-08 16:45 49.96751 -6.52265 25170 ft 388 kts 253°
2026-05-08 16:45 49.96112 -6.56280 25158 ft 394 kts 253°
2026-05-08 16:46 49.95467 -6.60401 25158 ft 385 kts 253°
2026-05-08 16:46 49.94859 -6.64515 25166 ft 384 kts 258°
2026-05-08 16:46 49.94836 -6.68569 25192 ft 375 kts 275°
2026-05-08 16:46 49.95533 -6.72546 25197 ft 405 kts 290°
2026-05-08 16:47 49.97102 -6.76533 25231 ft 446 kts 308°
2026-05-08 16:47 49.99282 -6.79582 25153 ft 428 kts 324°
2026-05-08 16:47 50.01952 -6.81595 25167 ft 424 kts 341°
2026-05-08 16:47 50.04880 -6.82389 25163 ft 435 kts 358°
2026-05-08 16:48 50.07835 -6.81944 25143 ft 424 kts 13°
2026-05-08 16:48 50.10649 -6.80239 25169 ft 439 kts 30°
2026-05-08 16:48 50.13053 -6.77460 25165 ft 429 kts 47°
2026-05-08 16:48 50.14877 -6.73778 25182 ft 436 kts 63°
2026-05-08 16:49 50.15991 -6.69632 25155 ft 420 kts 75°
2026-05-08 16:49 50.16877 -6.65245 25164 ft 414 kts 75°
2026-05-08 16:49 50.17764 -6.60842 25172 ft 406 kts 75°
2026-05-08 16:49 50.18610 -6.56655 25131 ft 430 kts 75°
2026-05-08 16:50 50.19505 -6.52201 25160 ft 414 kts 75°
2026-05-08 16:50 50.20369 -6.47932 25133 ft 419 kts 75°
2026-05-08 16:50 50.21251 -6.43500 25174 ft 432 kts 75°
2026-05-08 16:50 50.22146 -6.38981 25203 ft 431 kts 75°
2026-05-08 16:51 50.22990 -6.34663 25175 ft 417 kts 75°
2026-05-08 16:51 50.23857 -6.30259 25202 ft 430 kts 75°
2026-05-08 16:51 50.24719 -6.25887 25180 ft 419 kts 76°
2026-05-08 16:51 50.25575 -6.21538 25174 ft 420 kts 75°
2026-05-08 16:52 50.26446 -6.17092 25178 ft 431 kts 75°
2026-05-08 16:52 50.27310 -6.12663 25180 ft 423 kts 75°
2026-05-08 16:52 50.28167 -6.08279 25178 ft 422 kts 76°
2026-05-08 16:52 50.29033 -6.03844 25189 ft 427 kts 75°
2026-05-08 16:53 50.30547 -5.96281 25038 ft 302 kts 75°
2026-05-08 16:53 50.31202 -5.93162 24868 ft 321 kts 76°
2026-05-08 16:53 50.31619 -5.89820 24788 ft 304 kts 96°
2026-05-08 16:54 50.31285 -5.86467 24183 ft 354 kts 105°
2026-05-08 16:54 50.30594 -5.82241 22568 ft 430 kts 109°
2026-05-08 16:54 50.29652 -5.77322 22727 ft 519 kts 109°
2026-05-08 16:54 50.28454 -5.71546 23361 ft 581 kts 115°
2026-05-08 16:55 50.26628 -5.65896 24131 ft 575 kts 117°
2026-05-08 16:55 50.25448 -5.60002 24626 ft 580 kts 101°
2026-05-08 16:55 50.25353 -5.53605 24858 ft 591 kts 84°
2026-05-08 16:55 50.26394 -5.47396 24964 ft 594 kts 68°
2026-05-08 16:56 50.28508 -5.41768 25013 ft 601 kts 54°
2026-05-08 16:56 50.31036 -5.36693 25034 ft 597 kts 52°
2026-05-08 16:56 50.33578 -5.31540 25026 ft 598 kts 57°
2026-05-08 16:56 50.35471 -5.25772 25037 ft 596 kts 69°
2026-05-08 16:57 50.36925 -5.19720 25036 ft 594 kts 72°
2026-05-08 16:57 50.38260 -5.13579 25028 ft 596 kts 73°
2026-05-08 16:57 50.39561 -5.07379 25027 ft 593 kts 72°
2026-05-08 16:57 50.41122 -5.01397 25026 ft 595 kts 66°
2026-05-08 16:58 50.42757 -4.95427 25025 ft 596 kts 70°
2026-05-08 16:58 50.44271 -4.89447 25021 ft 594 kts 69°
2026-05-08 16:58 50.45876 -4.83462 25019 ft 596 kts 69°
2026-05-08 16:58 50.47435 -4.77406 25018 ft 595 kts 69°
2026-05-08 16:59 50.49002 -4.71401 25026 ft 595 kts 69°
2026-05-08 16:59 50.50571 -4.65371 25029 ft 596 kts 69°
2026-05-08 16:59 50.52129 -4.59325 25031 ft 595 kts 69°
2026-05-08 16:59 50.53671 -4.53371 25029 ft 594 kts 69°
2026-05-08 17:00 50.55222 -4.47336 25033 ft 596 kts 69°
2026-05-08 17:00 50.56778 -4.41279 25034 ft 595 kts 69°
2026-05-08 17:00 50.58324 -4.35243 25036 ft 595 kts 69°
2026-05-08 17:00 50.59873 -4.29171 25034 ft 596 kts 69°
2026-05-08 17:01 50.61415 -4.23121 25032 ft 595 kts 69°
2026-05-08 17:01 50.62948 -4.17086 25028 ft 595 kts 69°
2026-05-08 17:01 50.64489 -4.10998 25039 ft 597 kts 69°
2026-05-08 17:01 50.66004 -4.05000 25039 ft 594 kts 69°
2026-05-08 17:02 50.67530 -3.98944 25037 ft 596 kts 69°
2026-05-08 17:02 50.69062 -3.92845 25038 ft 596 kts 69°
2026-05-08 17:02 50.70583 -3.86778 25038 ft 595 kts 69°
2026-05-08 17:02 50.72109 -3.80672 25042 ft 597 kts 69°
2026-05-08 17:03 50.73625 -3.74590 25050 ft 595 kts 69°
2026-05-08 17:03 50.75137 -3.68506 25043 ft 596 kts 70°
2026-05-08 17:03 50.76652 -3.62395 25044 ft 597 kts 70°
2026-05-08 17:03 50.78164 -3.56281 25049 ft 595 kts 70°
2026-05-08 17:04 50.79669 -3.50173 25051 ft 597 kts 70°
2026-05-08 17:04 50.81172 -3.44061 25049 ft 596 kts 70°
2026-05-08 17:04 50.82668 -3.37959 25046 ft 595 kts 70°
2026-05-08 17:04 50.83660 -3.33899 25046 ft 597 kts 70°
2026-05-08 17:05 50.85162 -3.27745 25051 ft 597 kts 70°
2026-05-08 17:05 50.87131 -3.19650 25040 ft 596 kts 70°
2026-05-08 17:05 50.88621 -3.13504 25042 ft 598 kts 70°
2026-05-08 17:05 50.90104 -3.07370 25042 ft 596 kts 70°
2026-05-08 17:06 50.91104 -3.03224 25031 ft 596 kts 70°
2026-05-08 17:06 50.92577 -2.97101 25027 ft 598 kts 70°
2026-05-08 17:06 50.94046 -2.90982 25039 ft 597 kts 70°
2026-05-08 17:06 50.95517 -2.84831 25045 ft 596 kts 70°
2026-05-08 17:07 50.96989 -2.78663 25047 ft 598 kts 70°
2026-05-08 17:07 50.98457 -2.72493 25046 ft 597 kts 70°
2026-05-08 17:07 50.99905 -2.66300 25043 ft 596 kts 73°
2026-05-08 17:07 51.00644 -2.59862 25048 ft 595 kts 89°
2026-05-08 17:08 51.00250 -2.53358 25056 ft 590 kts 105°
2026-05-08 17:08 50.98759 -2.47348 25060 ft 586 kts 121°
2026-05-08 17:08 50.96448 -2.42024 25066 ft 586 kts 125°
2026-05-08 17:08 50.94672 -2.36221 25064 ft 589 kts 109°
2026-05-08 17:09 50.93978 -2.29780 25065 ft 595 kts 92°
2026-05-08 17:09 50.94433 -2.23275 25067 ft 597 kts 76°
2026-05-08 17:09 50.96004 -2.17191 25070 ft 598 kts 59°
2026-05-08 17:09 50.98571 -2.12007 25067 ft 601 kts 43°
2026-05-08 17:10 51.01938 -2.08120 25077 ft 598 kts 27°
2026-05-08 17:10 51.05830 -2.05852 25071 ft 596 kts 11°
2026-05-08 17:10 51.09953 -2.05326 25068 ft 595 kts 357°
2026-05-08 17:10 51.14025 -2.05694 25068 ft 591 kts 354°
2026-05-08 17:11 51.18123 -2.06207 25062 ft 593 kts 354°
2026-05-08 17:11 51.22238 -2.06652 25054 ft 592 kts 356°
2026-05-08 17:11 51.26348 -2.06130 25050 ft 595 kts
2026-05-08 17:11 51.30365 -2.04483 25047 ft 598 kts 17°
2026-05-08 17:12 51.34265 -2.02168 25061 ft 596 kts 22°
2026-05-08 17:12 51.38046 -1.99414 25092 ft 598 kts 25°
2026-05-08 17:12 51.41769 -1.96411 25083 ft 599 kts 26°
2026-05-08 17:12 51.45442 -1.93282 25075 ft 597 kts 27°
2026-05-08 17:13 51.49065 -1.89967 25059 ft 600 kts 32°
2026-05-08 17:13 51.52438 -1.86024 25056 ft 599 kts 37°
2026-05-08 17:13 51.55780 -1.82034 25064 ft 599 kts 33°
2026-05-08 17:13 51.59216 -1.78262 25057 ft 600 kts 35°
2026-05-08 17:14 51.62554 -1.74364 25061 ft 598 kts 34°
2026-05-08 17:14 51.65965 -1.70518 25064 ft 600 kts 34°
2026-05-08 17:14 51.69362 -1.66614 25059 ft 599 kts 35°
2026-05-08 17:14 51.72750 -1.62729 25039 ft 598 kts 34°
2026-05-08 17:15 51.76417 -1.59548 25041 ft 598 kts 19°
2026-05-08 17:15 51.80293 -1.57157 25042 ft 597 kts 26°
2026-05-08 17:15 51.83714 -1.53380 25046 ft 600 kts 42°
2026-05-08 17:15 51.86390 -1.48199 25079 ft 602 kts 58°
2026-05-08 17:16 51.88249 -1.42146 25086 ft 600 kts 66°
2026-05-08 17:16 51.89870 -1.35884 25087 ft 602 kts 68°
2026-05-08 17:16 51.91508 -1.29663 25071 ft 601 kts 66°
2026-05-08 17:16 51.93255 -1.23524 25069 ft 601 kts 64°
2026-05-08 17:17 51.95132 -1.17461 25066 ft 602 kts 63°
2026-05-08 17:17 51.97090 -1.11441 25068 ft 600 kts 62°
2026-05-08 17:17 51.99074 -1.05488 25067 ft 602 kts 61°
2026-05-08 17:17 52.01092 -0.99529 25069 ft 601 kts 61°
2026-05-08 17:18 52.03231 -0.93818 25074 ft 600 kts 54°
2026-05-08 17:18 52.05708 -0.88359 25064 ft 601 kts 53°
2026-05-08 17:18 52.08052 -0.82735 25072 ft 599 kts 57°
2026-05-08 17:18 52.10403 -0.77141 25070 ft 601 kts 54°
2026-05-08 17:19 52.12780 -0.71545 25067 ft 600 kts 56°
2026-05-08 17:19 52.15113 -0.65919 25070 ft 599 kts 55°
2026-05-08 17:19 52.17467 -0.60340 25075 ft 600 kts 55°
2026-05-08 17:19 52.19811 -0.54710 25071 ft 599 kts 56°
2026-05-08 17:20 52.22150 -0.49097 25074 ft 598 kts 56°
2026-05-08 17:20 52.24492 -0.43473 25077 ft 599 kts 56°
2026-05-08 17:20 52.26827 -0.37836 25074 ft 597 kts 56°
2026-05-08 17:20 52.29152 -0.32226 25079 ft 597 kts 56°
2026-05-08 17:21 52.31480 -0.26589 25088 ft 598 kts 56°
2026-05-08 17:21 52.33809 -0.20940 25084 ft 596 kts 56°
2026-05-08 17:21 52.36096 -0.15380 25089 ft 597 kts 56°
2026-05-08 17:21 52.38411 -0.09738 25089 ft 597 kts 56°
2026-05-08 17:22 52.40732 -0.04070 25090 ft 595 kts 56°
2026-05-08 17:22 52.43043 0.01589 24960 ft 597 kts 55°
2026-05-08 17:22 52.45371 0.07256 25035 ft 602 kts 54°
2026-05-08 17:22 52.47690 0.12960 25060 ft 600 kts 57°
2026-05-08 17:23 52.49941 0.18725 25075 ft 600 kts 56°
2026-05-08 17:23 52.52243 0.24446 25083 ft 601 kts 56°
2026-05-08 17:23 52.54510 0.30213 25100 ft 598 kts 56°
2026-05-08 17:23 52.56785 0.35958 25100 ft 601 kts 56°
2026-05-08 17:24 52.59022 0.41627 25102 ft 598 kts 56°
2026-05-08 17:24 52.61288 0.47400 25104 ft 600 kts 56°
2026-05-08 17:24 52.63659 0.53059 25100 ft 597 kts 49°
2026-05-08 17:24 52.66722 0.57616 25109 ft 593 kts 32°
2026-05-08 17:25 52.70403 0.60597 25118 ft 591 kts 16°
2026-05-08 17:25 52.74421 0.61783 25122 ft 584 kts
2026-05-08 17:25 52.78436 0.61085 25082 ft 582 kts 344°
2026-05-08 17:25 52.82166 0.58830 24489 ft 540 kts 337°
2026-05-08 17:26 52.85599 0.56145 20966 ft 568 kts 331°
2026-05-08 17:26 52.88761 0.52310 19393 ft 571 kts 315°
2026-05-08 17:26 52.91598 0.47669 17497 ft 574 kts 313°
2026-05-08 17:26 52.94195 0.43052 15115 ft 535 kts 310°
2026-05-08 17:27 52.96692 0.38183 12874 ft 569 kts 308°
2026-05-08 17:27 52.99116 0.32969 11184 ft 570 kts 305°
2026-05-08 17:27 53.01357 0.27536 9671 ft 570 kts 302°
2026-05-08 17:27 53.03478 0.22019 8607 ft 564 kts 301°
2026-05-08 17:28 53.05505 0.16431 7569 ft 563 kts 297°
2026-05-08 17:28 53.06699 0.10339 6921 ft 552 kts 277°
2026-05-08 17:28 53.06782 0.04007 6714 ft 540 kts 268°
2026-05-08 17:28 53.06624 -0.02125 6157 ft 540 kts 266°
2026-05-08 17:29 53.06413 -0.08391 5110 ft 535 kts 264°
2026-05-08 17:29 53.06110 -0.14001 3862 ft 448 kts 263°
2026-05-08 17:29 53.05817 -0.18816 2821 ft 393 kts 262°
2026-05-08 17:29 53.06075 -0.22573 2101 ft 234 kts 335°
2026-05-08 17:30 53.07399 -0.22250 1324 ft 180 kts 32°
2026-05-08 17:30 53.08328 -0.21096 646 ft 154 kts 60°
2026-05-08 17:30 53.08762 -0.19418 181 ft 166 kts 74°
2026-05-08 17:30 53.09081 -0.17786 61 ft 155 kts 74°
2026-05-08 17:31 53.09609 -0.14889 721 ft 366 kts 81°
2026-05-08 17:31 53.08472 -0.14174 1306 ft 242 kts 255°
2026-05-08 17:31 53.07859 -0.17884 943 ft 372 kts 253°
2026-05-08 17:31 53.07649 -0.21312 680 ft 203 kts 335°
2026-05-08 17:32 53.08516 -0.20536 369 ft 160 kts 71°
2026-05-08 17:32 53.08875 -0.18840 69 ft 150 kts 74°
2026-05-08 17:32 53.09119 -0.17543 26 ft 67 kts 72°
2026-05-08 17:32 53.09242 -0.16968 27 ft 48 kts 73°
2026-05-08 17:33 53.09342 -0.16483 29 ft 41 kts 71°
2026-05-08 17:33 53.09451 -0.15954 31 ft 48 kts 72°
2026-05-08 17:33 53.09548 -0.15442 29 ft 49 kts 73°
2026-05-08 17:33 53.09641 -0.14959 29 ft 32 kts 72°
2026-05-08 17:34 53.09731 -0.14710 30 ft 18 kts 348°
2026-05-08 17:34 53.09818 -0.14821 32 ft 14 kts 295°